Regional Weather Roundup
Issued by NWS

Home | Current Version | Previous Version | Text Only | Print | Product List | Glossary On
Versions: 1 2 3 4 5 6 7 8 9 10 11 12 13 14 15 16 17 18 19 20 21 22 23 24 25 26 27 28 29 30 31 32 33 34 35 36 37 38 39 40 41 42 43 44 45 46 47 48 49 50
000
ASUS43 KDTX 260310
RWRMI
MICHIGAN HOURLY REGIONAL WEATHER ROUNDUP
NATIONAL WEATHER SERVICE DETROIT/PONTIAC MI
1100 PM EDT WED MAY 25 2016

NOTE: "FAIR" INDICATES FEW OR NO CLOUDS BELOW 12,000 FEET WITH NO
SIGNIFICANT WEATHER AND/OR OBSTRUCTION TO VISIBILITY.

MIZ047>049-052>055-059>063-066>070-074>076-081>083-260400-
SOUTHEAST LOWER MICHIGAN

CITY           SKY/WX    TMP DP  RH WIND       PRES   REMARKS
ADRIAN         MOCLDY    75  59  57 S12       30.00R
ALMA           CLOUDY    73  58  60 CALM      29.97R
ANN ARBOR      CLOUDY    73  59  61 SE9       30.00S
BAD AXE        CLEAR     61  52  72 CALM      30.01S
CARO           MOCLDY    67  59  76 CALM      29.99S
DETROIT CITY   CLOUDY    75  57  53 S12       30.01F
DETROIT        CLOUDY    74  58  57 SE9       30.01S
FLINT          MOCLDY    74  59  59 S7        29.99S
GROSSE ILE     CLOUDY    72  61  68 SE14      30.00S
HILLSDALE      PTCLDY    72  53  51 SE6       30.00S
HOWELL         MOCLDY    70  58  66 SE6       29.99F

CITY           SKY/WX    TMP DP  RH WIND       PRES   REMARKS
JACKSON        CLOUDY    70  58  65 SE7       29.98F
LAMBERTVILLE   MOCLDY    74  62  65 S5        30.01S
LANSING        CLOUDY    76  58  53 SE7       29.98S
LAPEER         FAIR      72  57  59 SE3       30.01S
MASON          PTCLDY    73  58  59 SE8       29.98F
MONROE         CLOUDY    73  61  65 SW9       30.02R
MT. CLEMENS    MOCLDY    67  60  76 SE6       30.01S
PONTIAC        CLOUDY    74  58  57 SE7       30.00F
PORT HOPE        N/A     62  54  74 SE9       29.99S
PORT HURON     CLOUDY    66  59  77 CALM      30.02F
TRI CITIES     CLOUDY    63  56  78 N7        29.99S
MIDLAND        FAIR      63  55  75 E5        29.98F
TROY           CLOUDY    75  60  58 S3        30.03
SAGINAW HB     CLOUDY    64  59  82 CALM      29.98S
$$
MIZ043>046-050>051-056>058-064>065-071>073-077>080-260400-
SOUTHWEST LOWER MICHIGAN

CITY           SKY/WX    TMP DP  RH WIND       PRES   REMARKS
BATTLE CREEK   PTCLDY    75  59  57 SE8       29.97S
BENTON HARBOR  RAIN      64  61  90 VRB6      29.98R FOG
BIG RAPIDS     CLOUDY    66  64  93 E3        29.95F
COLDWATER      CLOUDY    73  60  63 SE5       29.97F
FREMONT        LGT RAIN  68  65  91 SW7       29.96R
HOLLAND        LGT RAIN  67  61  81 W10       29.96F
GRAND RAPIDS   MOCLDY    74  60  61 W12       29.96R
IONIA          FAIR      72  58  61 SE7       29.95S
KALAMAZOO      MOCLDY    74  60  61 W5        29.96R
LUDINGTON      CLOUDY    71  61  71 S6        29.94R
MARSHALL       PTCLDY    74  59  60 SE5       29.97S
MOUNT PLEASANT CLOUDY    63  57  80 NE3       29.98S
MUSKEGON       TSTM      64  61  90 SW5       29.96R FOG
SOUTH HAVEN    HVY RAIN  64  62  95 NW8       29.99R
$$
MIZ016>042-260400-
NORTHERN LOWER MICHIGAN

CITY           SKY/WX    TMP DP  RH WIND       PRES   REMARKS
ALPENA         PTCLDY    59  51  75 CALM      30.03S
BEAVER ISLAND  CLOUDY    61  55  79 E10       29.96S
BELLAIRE       CLOUDY    68  59  72 CALM      29.96R
CADILLAC       LGT RAIN  66  61  85 S14       30.01R
CHARLEVOIX     CLOUDY    68  57  67 E12       29.98F
FRANKFORT      PTCLDY    72  62  69 SE6       29.91F
GAYLORD        PTCLDY    65  55  70 SE8       30.01S
GRAYLING       MOCLDY    63  58  83 E7        30.01F
HARBOR SPRINGS CLOUDY    66  57  73 E6        29.98R
HOUGHTON LAKE  CLOUDY    64  55  72 W8        30.02R
MANISTEE       MOCLDY    72  61  68 E12       29.93S
OSCODA         MOCLDY    61  52  72 E8        30.01S
PELLSTON       CLOUDY    65  56  72 SE7       30.00R
ROGERS CITY    CLOUDY    63  52  68 SE6       30.03S
TRAVERSE CITY  CLOUDY    71  60  68 SE8       29.93F
$$
MIZ007>008-015-260400-
EASTERN UPPER MICHIGAN

CITY           SKY/WX    TMP DP  RH WIND       PRES   REMARKS
KINROSS          N/A     59  54  82 SE10      30.01S
MACKINAC ISLAN CLOUDY    60  53  76 E10G20    29.99F
NEWBERRY       CLOUDY    62  55  80 E8        29.97F
S. S. MARIE    CLOUDY    60  52  74 E6        30.01S
MUNISING         N/A     48  45  89 CALM      29.93F
$$
MIZ004>006-011>014-085-260400-
CENTRAL UPPER MICHIGAN

CITY           SKY/WX    TMP DP  RH WIND       PRES   REMARKS
MANISTIQUE     CLOUDY    64  55  73 E9G16     29.94F
ESCANABA       CLOUDY    63  55  77 E7        29.91F
MENOMINEE      LGT RAIN  57  55  93 E6        29.92F
SAWYER-GWINN   CLOUDY    52  49  90 W6        29.96R
$$
MIZ001>003-009>011-084-260400-
WESTERN UPPER MICHIGAN

CITY           SKY/WX    TMP DP  RH WIND       PRES   REMARKS
IRON MOUNTAIN  LGT RAIN  60  58  92 CALM      29.92R
HOUGHTON       CLOUDY    50  46  86 E10       29.95R
COPPER HARBOR    N/A     48  44  86 CALM      29.95S
IRONWOOD       CLOUDY    48  48 100 SW5       29.91S
$$

ABBREVIATIONS USED IN REMARKS
   TC - TEMPERATURE IN CELSIUS
  WCI - WIND CHILL INDEX
   HX - HEAT INDEX
  VSB - VISIBILITY





USA.gov is the U.S. government's official web portal to all federal, state and local government web resources and services.